| time (UTC) | temp F | wind direction | speed MPH | gust MPH | rain 1hr in | rain 24hr in | rain mn in | humidity % | barometer mb |
| 20260510213604 | 47 | 15 | 0.0 | 3.0 | 0.00 | 0.00 | 0.00 | 99 | 1033.3 |
| 20260510212725 | 47 | 11 | 0.0 | 3.0 | 0.00 | 0.00 | 0.00 | 99 | 1033.5 |
| 20260510211825 | 47 | 11 | 0.0 | 3.0 | 0.00 | 0.00 | 0.00 | 99 | 1033.3 |
| 20260510210904 | 47 | 5 | 0.0 | 2.0 | 0.00 | 0.00 | 0.00 | 99 | 1033.1 |
| 20260510210004 | 47 | 45 | 0.0 | 1.0 | 0.00 | 0.00 | 0.00 | 99 | 1033.0 |
| 20260510205404 | 47 | 31 | 0.0 | 2.0 | 0.00 | 0.00 | 0.00 | 99 | 1032.9 |
| 20260510204504 | 47 | 0 | 0.0 | 0.0 | 0.00 | 0.00 | 0.00 | 99 | 1032.9 |
| 20260510203604 | 47 | 0 | 0.0 | 0.0 | 0.00 | 0.00 | 0.00 | 99 | 1033.0 |
| 20260510202704 | 47 | 11 | 0.0 | 1.0 | 0.00 | 0.00 | 0.00 | 99 | 1032.9 |
| 20260510201804 | 47 | 50 | 0.0 | 3.0 | 0.00 | 0.00 | 0.00 | 99 | 1033.0 |
| 20260510200925 | 48 | 31 | 0.0 | 2.0 | 0.00 | 0.00 | 0.00 | 99 | 1032.6 |
| 20260510200004 | 48 | 358 | 1.0 | 2.0 | 0.00 | 0.00 | 0.00 | 99 | 1032.6 |
| 20260510195404 | 48 | 354 | 1.0 | 3.0 | 0.00 | 0.00 | 0.00 | 99 | 1032.6 |
| 20260510194504 | 48 | 19 | 0.0 | 3.0 | 0.00 | 0.00 | 0.00 | 99 | 1032.4 |
| 20260510193603 | 48 | 54 | 0.0 | 1.0 | 0.00 | 0.00 | 0.00 | 99 | 1032.3 |
| 20260510192704 | 48 | 44 | 0.0 | 3.0 | 0.00 | 0.00 | 0.00 | 99 | 1032.4 |
| 20260510191804 | 48 | 46 | 1.0 | 3.0 | 0.00 | 0.00 | 0.00 | 99 | 1032.3 |
| 20260510190903 | 48 | 41 | 0.0 | 1.0 | 0.00 | 0.00 | 0.00 | 99 | 1032.2 |
| 20260510190004 | 48 | 39 | 1.0 | 3.0 | 0.00 | 0.00 | 0.00 | 99 | 1032.1 |
| 20260510185404 | 48 | 47 | 0.0 | 2.0 | 0.00 | 0.00 | 0.00 | 99 | 1031.9 |
| 20260510184504 | 48 | 44 | 0.0 | 2.0 | 0.00 | 0.00 | 0.00 | 99 | 1031.7 |
| 20260510183603 | 48 | 37 | 0.0 | 2.0 | 0.00 | 0.00 | 0.00 | 99 | 1031.9 |
| 20260510182703 | 48 | 44 | 0.0 | 2.0 | 0.00 | 0.00 | 0.00 | 99 | 1031.6 |
| 20260510181804 | 48 | 44 | 0.0 | 2.0 | 0.00 | 0.00 | 0.00 | 99 | 1031.8 |
| 20260510180924 | 48 | 40 | 0.0 | 1.0 | 0.00 | 0.00 | 0.00 | 99 | 1031.7 |
| 20260510180004 | 48 | 41 | 0.0 | 3.0 | 0.00 | 0.00 | 0.00 | 99 | 1031.6 |
| 20260510175403 | 48 | 36 | 0.0 | 2.0 | 0.00 | 0.00 | 0.00 | 99 | 1031.5 |
| 20260510174525 | 48 | 44 | 1.0 | 2.0 | 0.00 | 0.00 | 0.00 | 99 | 1031.4 |
| 20260510173604 | 48 | 50 | 1.0 | 2.0 | 0.00 | 0.00 | 0.00 | 99 | 1031.5 |
| 20260510172725 | 48 | 55 | 1.0 | 2.0 | 0.00 | 0.00 | 0.00 | 99 | 1031.4 |
| 20260510171804 | 48 | 49 | 0.0 | 2.0 | 0.00 | 0.00 | 0.00 | 99 | 1031.5 |
| 20260510170903 | 47 | 51 | 0.0 | 2.0 | 0.00 | 0.00 | 0.00 | 99 | 1031.6 |
| 20260510170004 | 48 | 44 | 0.0 | 1.0 | 0.00 | 0.00 | 0.00 | 99 | 1031.4 |
| 20260510165425 | 48 | 0 | 0.0 | 0.0 | 0.00 | 0.00 | 0.00 | 99 | 1031.3 |
| 20260510164504 | 48 | 72 | 0.0 | 1.0 | 0.00 | 0.00 | 0.00 | 99 | 1031.6 |
| 20260510163604 | 48 | 60 | 0.0 | 2.0 | 0.00 | 0.00 | 0.00 | 99 | 1031.5 |
| 20260510162724 | 48 | 61 | 0.0 | 1.0 | 0.00 | 0.00 | 0.00 | 99 | 1031.5 |
| 20260510161824 | 48 | 59 | 1.0 | 2.0 | 0.00 | 0.00 | 0.00 | 99 | 1031.5 |
| 20260510160904 | 48 | 59 | 0.0 | 1.0 | 0.00 | 0.00 | 0.00 | 99 | 1031.6 |
| 20260510160025 | 48 | 0 | 0.0 | 0.0 | 0.00 | 0.00 | 0.00 | 99 | 1031.7 |
| 20260510155424 | 47 | 0 | 0.0 | 0.0 | 0.00 | 0.00 | 0.00 | 99 | 1031.7 |
| 20260510154524 | 47 | 0 | 0.0 | 0.0 | 0.00 | 0.00 | 0.00 | 99 | 1031.9 |
| 20260510153603 | 48 | 0 | 0.0 | 0.0 | 0.00 | 0.00 | 0.00 | 99 | 1031.6 |
| 20260510152703 | 48 | 62 | 0.0 | 2.0 | 0.00 | 0.00 | 0.00 | 99 | 1031.8 |
| 20260510151803 | 48 | 68 | 0.0 | 2.0 | 0.00 | 0.00 | 0.00 | 99 | 1031.7 |
| 20260510150903 | 48 | 70 | 0.0 | 2.0 | 0.00 | 0.00 | 0.00 | 99 | 1031.7 |
| 20260510150004 | 48 | 73 | 0.0 | 1.0 | 0.00 | 0.00 | 0.00 | 99 | 1031.9 |
| 20260510145403 | 48 | 65 | 0.0 | 1.0 | 0.00 | 0.01 | 0.00 | 99 | 1032.0 |
| 20260510144503 | 48 | 56 | 1.0 | 2.0 | 0.00 | 0.01 | 0.00 | 98 | 1031.8 |
| 20260510143604 | 48 | 65 | 0.0 | 2.0 | 0.00 | 0.01 | 0.00 | 98 | 1031.8 |
| 20260510142704 | 48 | 62 | 0.0 | 1.0 | 0.00 | 0.01 | 0.00 | 98 | 1031.9 |
| 20260510141804 | 48 | 47 | 0.0 | 1.0 | 0.00 | 0.01 | 0.00 | 97 | 1031.8 |
| 20260510140904 | 49 | 70 | 0.0 | 2.0 | 0.00 | 0.01 | 0.00 | 97 | 1031.7 |
| 20260510140004 | 49 | 70 | 0.0 | 1.0 | 0.00 | 0.01 | 0.00 | 97 | 1031.8 |
| 20260510135404 | 49 | 69 | 0.0 | 2.0 | 0.00 | 0.01 | 0.01 | 97 | 1031.9 |
| 20260510134505 | 49 | 70 | 0.0 | 1.0 | 0.00 | 0.01 | 0.01 | 97 | 1032.0 |
| 20260510133604 | 49 | 0 | 0.0 | 0.0 | 0.00 | 0.01 | 0.01 | 97 | 1032.0 |
| 20260510132726 | 49 | 70 | 0.0 | 1.0 | 0.00 | 0.01 | 0.01 | 96 | 1031.7 |
| 20260510131804 | 49 | 66 | 0.0 | 2.0 | 0.00 | 0.01 | 0.01 | 95 | 1032.1 |
| 20260510130925 | 49 | 0 | 0.0 | 0.0 | 0.00 | 0.01 | 0.01 | 94 | 1032.0 |
| 20260510130004 | 50 | 132 | 0.0 | 2.0 | 0.00 | 0.01 | 0.01 | 93 | 1032.1 |
| 20260510125425 | 50 | 127 | 0.0 | 2.0 | 0.00 | 0.01 | 0.01 | 93 | 1031.9 |
| 20260510124504 | 50 | 131 | 1.0 | 2.0 | 0.00 | 0.01 | 0.01 | 93 | 1032.0 |
| 20260510123604 | 51 | 142 | 1.0 | 2.0 | 0.00 | 0.01 | 0.01 | 93 | 1032.3 |
| 20260510122704 | 51 | 171 | 0.0 | 2.0 | 0.00 | 0.01 | 0.01 | 92 | 1032.2 |
| 20260510121804 | 51 | 155 | 1.0 | 3.0 | 0.00 | 0.01 | 0.01 | 93 | 1032.2 |
| 20260510120904 | 51 | 152 | 1.0 | 2.0 | 0.00 | 0.01 | 0.01 | 93 | 1032.3 |
| 20260510120004 | 50 | 148 | 1.0 | 2.0 | 0.00 | 0.01 | 0.01 | 93 | 1032.2 |
| 20260510115404 | 51 | 138 | 1.0 | 2.0 | 0.00 | 0.01 | 0.01 | 93 | 1032.2 |
| 20260510114504 | 51 | 134 | 0.0 | 2.0 | 0.00 | 0.01 | 0.01 | 93 | 1032.1 |
| 20260510113604 | 51 | 118 | 0.0 | 2.0 | 0.00 | 0.01 | 0.01 | 92 | 1032.0 |
| 20260510112704 | 51 | 141 | 1.0 | 2.0 | 0.00 | 0.01 | 0.01 | 91 | 1031.9 |
| 20260510111804 | 51 | 151 | 1.0 | 2.0 | 0.00 | 0.01 | 0.01 | 91 | 1031.8 |
| 20260510110904 | 51 | 147 | 1.0 | 2.0 | 0.00 | 0.01 | 0.01 | 91 | 1031.8 |
| 20260510110004 | 52 | 155 | 1.0 | 2.0 | 0.00 | 0.01 | 0.01 | 90 | 1031.5 |
| 20260510105404 | 52 | 196 | 0.0 | 2.0 | 0.00 | 0.01 | 0.01 | 88 | 1031.7 |
| 20260510104504 | 52 | 165 | 1.0 | 2.0 | 0.00 | 0.01 | 0.01 | 89 | 1031.6 |
| 20260510103604 | 52 | 151 | 1.0 | 2.0 | 0.00 | 0.01 | 0.01 | 89 | 1031.7 |
| 20260510102704 | 53 | 118 | 1.0 | 4.0 | 0.00 | 0.01 | 0.01 | 88 | 1031.6 |
| 20260510101804 | 53 | 97 | 0.0 | 2.0 | 0.00 | 0.01 | 0.01 | 87 | 1031.5 |
| 20260510100904 | 53 | 135 | 1.0 | 3.0 | 0.00 | 0.01 | 0.01 | 87 | 1031.6 |
| 20260510100004 | 53 | 104 | 0.0 | 2.0 | 0.00 | 0.01 | 0.01 | 87 | 1031.4 |
| 20260510095404 | 53 | 126 | 0.0 | 2.0 | 0.00 | 0.01 | 0.01 | 86 | 1031.7 |
| 20260510094504 | 52 | 164 | 0.0 | 2.0 | 0.00 | 0.01 | 0.01 | 86 | 1031.6 |
| 20260510093604 | 53 | 162 | 0.0 | 2.0 | 0.00 | 0.01 | 0.01 | 85 | 1031.5 |
| 20260510092704 | 53 | 158 | 0.0 | 1.0 | 0.00 | 0.01 | 0.01 | 86 | 1031.4 |
| 20260510091804 | 53 | 102 | 1.0 | 3.0 | 0.00 | 0.01 | 0.01 | 86 | 1031.3 |
| 20260510090904 | 53 | 125 | 0.0 | 3.0 | 0.00 | 0.01 | 0.01 | 86 | 1031.4 |
| 20260510090004 | 53 | 130 | 0.0 | 2.0 | 0.00 | 0.01 | 0.01 | 86 | 1031.2 |
| 20260510085425 | 53 | 143 | 0.0 | 2.0 | 0.00 | 0.01 | 0.01 | 85 | 1031.4 |
| 20260510084504 | 53 | 134 | 0.0 | 3.0 | 0.00 | 0.01 | 0.01 | 85 | 1031.1 |
| 20260510083604 | 53 | 119 | 1.0 | 2.0 | 0.00 | 0.01 | 0.01 | 85 | 1031.2 |
| 20260510082704 | 53 | 129 | 1.0 | 4.0 | 0.00 | 0.01 | 0.01 | 85 | 1031.0 |
| 20260510081804 | 53 | 128 | 1.0 | 1.0 | 0.00 | 0.01 | 0.01 | 87 | 1030.9 |
| 20260510080904 | 53 | 138 | 0.0 | 2.0 | 0.00 | 0.01 | 0.01 | 87 | 1030.9 |
| 20260510080004 | 53 | 104 | 0.0 | 2.0 | 0.00 | 0.01 | 0.01 | 87 | 1030.8 |
| 20260510075404 | 53 | 117 | 0.0 | 3.0 | 0.00 | 0.01 | 0.01 | 87 | 1030.9 |
| 20260510074525 | 52 | 124 | 1.0 | 6.0 | 0.00 | 0.01 | 0.01 | 89 | 1030.7 |
| 20260510073603 | 53 | 139 | 1.0 | 2.0 | 0.00 | 0.01 | 0.01 | 89 | 1030.5 |
| 20260510072704 | 54 | 132 | 0.0 | 1.0 | 0.00 | 0.01 | 0.01 | 88 | 1030.7 |
| 20260510071803 | 54 | 0 | 0.0 | 0.0 | 0.00 | 0.01 | 0.01 | 86 | 1030.5 |
| 20260510070903 | 56 | 0 | 0.0 | 0.0 | 0.00 | 0.01 | 0.01 | 83 | 1030.5 |
| 20260510070025 | 57 | 0 | 0.0 | 0.0 | 0.00 | 0.01 | 0.01 | 79 | 1030.4 |
| 20260510065403 | 58 | 0 | 0.0 | 0.0 | 0.00 | 0.01 | 0.01 | 76 | 1030.4 |
| 20260510064503 | 59 | 147 | 1.0 | 3.0 | 0.00 | 0.01 | 0.01 | 74 | 1030.4 |
| 20260510063604 | 60 | 13 | 0.0 | 2.0 | 0.00 | 0.01 | 0.01 | 75 | 1030.3 |
| 20260510062704 | 60 | 41 | 0.0 | 1.0 | 0.00 | 0.01 | 0.01 | 75 | 1030.1 |
| 20260510061803 | 58 | 41 | 0.0 | 1.0 | 0.00 | 0.01 | 0.01 | 76 | 1030.4 |
| 20260510060903 | 58 | 85 | 0.0 | 2.0 | 0.00 | 0.01 | 0.01 | 75 | 1030.2 |
| 20260510060004 | 60 | 148 | 1.0 | 6.0 | 0.00 | 0.01 | 0.01 | 72 | 1030.3 |
| 20260510055404 | 61 | 90 | 1.0 | 4.0 | 0.00 | 0.01 | 0.01 | 70 | 1030.0 |
| 20260510054504 | 61 | 103 | 1.0 | 4.0 | 0.00 | 0.01 | 0.01 | 70 | 1030.1 |
| 20260510053603 | 62 | 309 | 1.0 | 4.0 | 0.00 | 0.01 | 0.01 | 70 | 1030.2 |
| 20260510052704 | 61 | 15 | 1.0 | 4.0 | 0.00 | 0.01 | 0.01 | 71 | 1029.9 |
| 20260510051803 | 63 | 320 | 1.0 | 6.0 | 0.00 | 0.01 | 0.01 | 67 | 1030.0 |
| 20260510050904 | 63 | 322 | 1.0 | 6.0 | 0.00 | 0.01 | 0.01 | 67 | 1030.2 |
| 20260510050004 | 63 | 192 | 1.0 | 4.0 | 0.00 | 0.01 | 0.01 | 65 | 1030.1 |
| 20260510045403 | 63 | 241 | 1.0 | 3.0 | 0.00 | 0.01 | 0.01 | 67 | 1030.0 |
| 20260510044504 | 65 | 180 | 0.0 | 2.0 | 0.00 | 0.01 | 0.01 | 64 | 1030.0 |
| 20260510043604 | 62 | 219 | 1.0 | 3.0 | 0.00 | 0.01 | 0.01 | 70 | 1030.0 |
| 20260510042704 | 60 | 263 | 0.0 | 2.0 | 0.00 | 0.01 | 0.01 | 76 | 1030.2 |
| 20260510041804 | 60 | 298 | 0.0 | 2.0 | 0.00 | 0.01 | 0.01 | 73 | 1030.1 |
| 20260510040924 | 58 | 314 | 0.0 | 2.0 | 0.00 | 0.01 | 0.01 | 76 | 1030.1 |
| 20260510040004 | 59 | 193 | 1.0 | 3.0 | 0.00 | 0.01 | 0.01 | 74 | 1030.3 |
| 20260510035424 | 60 | 225 | 1.0 | 3.0 | 0.00 | 0.01 | 0.01 | 73 | 1030.3 |
| 20260510034503 | 63 | 287 | 0.0 | 1.0 | 0.00 | 0.01 | 0.01 | 70 | 1030.2 |
| 20260510033624 | 60 | 152 | 0.0 | 2.0 | 0.00 | 0.01 | 0.01 | 74 | 1030.1 |
| 20260510032703 | 58 | 159 | 1.0 | 3.0 | 0.00 | 0.01 | 0.01 | 76 | 1030.4 |
| 20260510031803 | 58 | 223 | 0.0 | 4.0 | 0.00 | 0.01 | 0.01 | 75 | 1030.5 |
| 20260510030924 | 58 | 314 | 0.0 | 3.0 | 0.00 | 0.01 | 0.01 | 78 | 1030.5 |
| 20260510030004 | 59 | 209 | 0.0 | 2.0 | 0.00 | 0.01 | 0.01 | 76 | 1030.5 |
| 20260510025403 | 59 | 235 | 0.0 | 2.0 | 0.00 | 0.01 | 0.01 | 77 | 1030.6 |
| 20260510024503 | 59 | 267 | 0.0 | 2.0 | 0.00 | 0.01 | 0.01 | 77 | 1030.6 |
| 20260510023603 | 59 | 215 | 0.0 | 2.0 | 0.00 | 0.01 | 0.01 | 76 | 1030.7 |
| 20260510022704 | 59 | 222 | 0.0 | 2.0 | 0.00 | 0.01 | 0.01 | 77 | 1030.7 |
| 20260510021825 | 59 | 224 | 0.0 | 4.0 | 0.00 | 0.01 | 0.01 | 78 | 1030.8 |
| 20260510020904 | 59 | 258 | 0.0 | 4.0 | 0.00 | 0.01 | 0.01 | 76 | 1030.9 |
| 20260510020005 | 59 | 217 | 0.0 | 2.0 | 0.00 | 0.01 | 0.01 | 78 | 1031.1 |
| 20260510015404 | 58 | 166 | 0.0 | 1.0 | 0.00 | 0.01 | 0.01 | 80 | 1031.1 |
| 20260510014504 | 57 | 164 | 0.0 | 2.0 | 0.00 | 0.01 | 0.01 | 79 | 1031.3 |
| 20260510013625 | 58 | 249 | 0.0 | 2.0 | 0.00 | 0.01 | 0.01 | 82 | 1031.3 |
| 20260510012704 | 57 | 324 | 0.0 | 2.0 | 0.00 | 0.01 | 0.01 | 81 | 1031.3 |
| 20260510011825 | 57 | 184 | 0.0 | 2.0 | 0.00 | 0.01 | 0.01 | 82 | 1031.3 |
| 20260510010904 | 57 | 36 | 0.0 | 1.0 | 0.00 | 0.01 | 0.01 | 83 | 1031.6 |
| 20260510010025 | 57 | 22 | 0.0 | 2.0 | 0.00 | 0.01 | 0.01 | 82 | 1031.5 |
| 20260510005404 | 57 | 213 | 0.0 | 2.0 | 0.00 | 0.01 | 0.01 | 82 | 1031.4 |
| 20260510004525 | 57 | 216 | 0.0 | 3.0 | 0.00 | 0.01 | 0.01 | 83 | 1031.6 |
| 20260510003604 | 57 | 182 | 1.0 | 2.0 | 0.00 | 0.01 | 0.01 | 81 | 1031.4 |
| 20260510002704 | 57 | 194 | 0.0 | 2.0 | 0.00 | 0.01 | 0.01 | 83 | 1031.5 |
| 20260510001825 | 56 | 195 | 0.0 | 2.0 | 0.00 | 0.01 | 0.01 | 83 | 1031.1 |
| 20260510000904 | 56 | 206 | 0.0 | 1.0 | 0.00 | 0.01 | 0.01 | 86 | 1031.4 |
| 20260510000004 | 56 | 207 | 0.0 | 2.0 | 0.00 | 0.01 | 0.01 | 87 | 1031.3 |
| 20260509235404 | 56 | 209 | 0.0 | 2.0 | 0.00 | 0.01 | 0.01 | 89 | 1031.3 |
| 20260509234504 | 55 | 292 | 0.0 | 2.0 | 0.00 | 0.01 | 0.01 | 90 | 1031.3 |
| 20260509233604 | 55 | 300 | 0.0 | 1.0 | 0.00 | 0.01 | 0.01 | 91 | 1031.4 |
| 20260509232704 | 55 | 273 | 0.0 | 1.0 | 0.00 | 0.01 | 0.01 | 92 | 1031.4 |
| 20260509231804 | 54 | 271 | 0.0 | 1.0 | 0.00 | 0.01 | 0.01 | 93 | 1031.5 |
| 20260509230904 | 54 | 240 | 0.0 | 1.0 | 0.00 | 0.01 | 0.01 | 94 | 1031.5 |
| 20260509230009 | 54 | 144 | 0.0 | 1.0 | 0.00 | 0.01 | 0.01 | 95 | 1031.4 |
| 20260509225425 | 54 | 0 | 0.0 | 0.0 | 0.00 | 0.01 | 0.01 | 96 | 1031.5 |
| 20260509224504 | 53 | 0 | 0.0 | 0.0 | 0.00 | 0.01 | 0.01 | 97 | 1031.5 |
| 20260509223604 | 53 | 0 | 0.0 | 0.0 | 0.00 | 0.01 | 0.01 | 98 | 1031.4 |
| 20260509222704 | 53 | 0 | 0.0 | 0.0 | 0.00 | 0.01 | 0.01 | 99 | 1031.2 |
| 20260509221804 | 53 | 0 | 0.0 | 0.0 | 0.00 | 0.01 | 0.01 | 99 | 1031.3 |
| 20260509220904 | 52 | 0 | 0.0 | 0.0 | 0.00 | 0.01 | 0.01 | 99 | 1031.0 |
| 20260509220004 | 52 | 0 | 0.0 | 0.0 | 0.00 | 0.01 | 0.01 | 99 | 1030.7 |
| 20260509215404 | 52 | 0 | 0.0 | 0.0 | 0.00 | 0.01 | 0.01 | 99 | 1030.8 |
| 20260509214504 | 52 | 0 | 0.0 | 0.0 | 0.00 | 0.01 | 0.01 | 99 | 1030.4 |